When you browse on this site, cookies collect data to enhance your experience and personalize the content and advertising you see.
Visit our Privacy Policy to learn more. By continuing to use the site, you agree to this use of cookies and data.
  • In Schweiz
  • Länderverzeichnis
  • Für 7 Tage
  • Wassertemperatur
  • Wetterkarte
  • Widgets
  • user-avatar
    Anmelden

    Stündliche Wetter Vanadzor

    Heute, 16 Oktober, Mittwoch

    Zeit Temperatur Niederschläge Wind Luftdruck Luftfeuchtigkeit
    00:00 +12°C° 0 mm 1 m/S 639 mmHg 30%
    01:00 +12°C° 0 mm 1 m/S 639 mmHg 30%
    02:00 +12°C° 0 mm 1 m/S 639 mmHg 30%
    03:00 +12°C° 0 mm 1 m/S 639 mmHg 30%
    04:00 +11°C° 0 mm 1 m/S 639 mmHg 30%
    05:00 +11°C° 0 mm 1 m/S 639 mmHg 31%
    06:00 +11°C° 0 mm 1 m/S 639 mmHg 31%
    07:00 +13°C° 0 mm 1 m/S 639 mmHg 29%
    08:00 +16°C° 0 mm 1 m/S 640 mmHg 27%
    09:00 +19°C° 0 mm 1 m/S 642 mmHg 25%
    10:00 +21°C° 0 mm 1 m/S 642 mmHg 22%
    11:00 +22°C° 0 mm 1 m/S 642 mmHg 20%
    12:00 +23°C° 0 mm 1 m/S 642 mmHg 18%
    13:00 +23°C° 0 mm 1 m/S 641 mmHg 18%
    14:00 +23°C° 0 mm 2 m/S 641 mmHg 18%
    15:00 +23°C° 0 mm 2 m/S 641 mmHg 19%
    16:00 +20°C° 0 mm 1 m/S 640 mmHg 26%
    17:00 +18°C° 0 mm 1 m/S 639 mmHg 33%
    18:00 +13°C° 0 mm 0 m/S 638 mmHg 40%
    19:00 +14°C° 0 mm 1 m/S 639 mmHg 41%
    20:00 +13°C° 0 mm 1 m/S 639 mmHg 43%
    21:00 +13°C° 0 mm 1 m/S 639 mmHg 44%
    22:00 +13°C° 0 mm 1 m/S 639 mmHg 44%
    23:00 +12°C° 0 mm 1 m/S 639 mmHg 45%

    Morgen, 17 Oktober, Donnerstag

    Zeit Temperatur Niederschläge Wind Luftdruck Luftfeuchtigkeit
    00:00 +12°C° 0 mm 1 m/S 639 mmHg 46%
    01:00 +12°C° 0 mm 1 m/S 639 mmHg 46%
    02:00 +11°C° 0 mm 1 m/S 639 mmHg 47%
    03:00 +11°C° 0 mm 1 m/S 639 mmHg 47%
    04:00 +11°C° 0 mm 1 m/S 639 mmHg 46%
    05:00 +10°C° 0 mm 1 m/S 639 mmHg 46%
    06:00 +10°C° 0 mm 1 m/S 639 mmHg 45%
    07:00 +13°C° 0 mm 1 m/S 640 mmHg 40%
    08:00 +14°C° 0 mm 0 m/S 641 mmHg 35%
    09:00 +16°C° 0 mm 0 m/S 642 mmHg 30%
    10:00 +20°C° 0 mm 1 m/S 642 mmHg 28%
    11:00 +21°C° 0 mm 1 m/S 642 mmHg 26%
    12:00 +22°C° 0 mm 1 m/S 642 mmHg 25%
    13:00 +22°C° 0 mm 1 m/S 641 mmHg 26%
    14:00 +22°C° 0 mm 1 m/S 641 mmHg 28%
    15:00 +22°C° 0 mm 1 m/S 641 mmHg 30%
    16:00 +20°C° 0 mm 1 m/S 640 mmHg 37%
    17:00 +16°C° 0 mm 1 m/S 640 mmHg 45%
    18:00 +13°C° 0 mm 0 m/S 639 mmHg 52%
    19:00 +13°C° 0 mm 0 m/S 639 mmHg 53%
    20:00 +12°C° 0 mm 0 m/S 639 mmHg 54%
    21:00 +11°C° 0 mm 0 m/S 639 mmHg 56%
    22:00 +11°C° 0 mm 0 m/S 639 mmHg 55%
    23:00 +11°C° 0 mm 0 m/S 639 mmHg 54%

    übermorgen, 18 Oktober, Freitag

    Zeit Temperatur Niederschläge Wind Luftdruck Luftfeuchtigkeit
    00:00 +12°C° 0 mm 1 m/S 638 mmHg 53%
    01:00 +12°C° 0 mm 1 m/S 638 mmHg 50%
    02:00 +12°C° 0 mm 1 m/S 638 mmHg 46%
    03:00 +12°C° 0 mm 1 m/S 638 mmHg 42%
    04:00 +12°C° 0 mm 1 m/S 638 mmHg 40%
    05:00 +12°C° 0 mm 1 m/S 638 mmHg 37%
    06:00 +12°C° 0 mm 1 m/S 638 mmHg 34%
    07:00 +14°C° 0 mm 1 m/S 639 mmHg 32%
    08:00 +16°C° 0 mm 1 m/S 639 mmHg 30%
    09:00 +20°C° 0 mm 1 m/S 640 mmHg 28%
    10:00 +21°C° 0 mm 1 m/S 640 mmHg 28%
    11:00 +21°C° 0 mm 2 m/S 640 mmHg 28%
    12:00 +23°C° 0 mm 2 m/S 640 mmHg 28%
    13:00 +23°C° 0 mm 2 m/S 640 mmHg 29%
    14:00 +23°C° 0 mm 2 m/S 639 mmHg 29%
    15:00 +23°C° 0 mm 2 m/S 639 mmHg 30%
    16:00 +21°C° 0 mm 1 m/S 638 mmHg 38%
    17:00 +19°C° 0 mm 1 m/S 638 mmHg 45%
    18:00 +15°C° 0 mm 0 m/S 637 mmHg 53%
    19:00 +15°C° 0 mm 1 m/S 637 mmHg 54%
    20:00 +15°C° 0 mm 1 m/S 637 mmHg 55%
    21:00 +14°C° 0 mm 1 m/S 637 mmHg 56%
    22:00 +14°C° 0 mm 1 m/S 637 mmHg 56%
    23:00 +13°C° 0 mm 1 m/S 637 mmHg 56%

    19 Oktober, Samstag

    Zeit Temperatur Niederschläge Wind Luftdruck Luftfeuchtigkeit
    00:00 +13°C° 0 mm 1 m/S 637 mmHg 57%
    01:00 +13°C° 0 mm 1 m/S 637 mmHg 57%
    02:00 +12°C° 0 mm 1 m/S 637 mmHg 57%
    03:00 +12°C° 0 mm 1 m/S 637 mmHg 58%
    04:00 +12°C° 0 mm 1 m/S 637 mmHg 58%
    05:00 +12°C° 0 mm 1 m/S 637 mmHg 57%
    06:00 +12°C° 0 mm 1 m/S 637 mmHg 57%
    07:00 +14°C° 0 mm 1 m/S 638 mmHg 52%
    08:00 +15°C° 0 mm 0 m/S 638 mmHg 46%
    09:00 +17°C° 0 mm 0 m/S 639 mmHg 41%
    10:00 +20°C° 0 mm 1 m/S 639 mmHg 38%
    11:00 +21°C° 0 mm 1 m/S 639 mmHg 36%
    12:00 +23°C° 0 mm 1 m/S 640 mmHg 33%
    13:00 +22°C° 0 mm 1 m/S 639 mmHg 35%
    14:00 +22°C° 0 mm 1 m/S 639 mmHg 37%
    15:00 +22°C° 0 mm 1 m/S 638 mmHg 38%
    16:00 +20°C° 0.2 mm 1 m/S 638 mmHg 47%
    17:00 +18°C° 0.2 mm 1 m/S 637 mmHg 56%
    18:00 +14°C° 0.2 mm 0 m/S 637 mmHg 64%
    19:00 +14°C° 0.4 mm 0 m/S 637 mmHg 68%
    20:00 +14°C° 0.4 mm 1 m/S 638 mmHg 71%
    21:00 +14°C° 0.4 mm 1 m/S 638 mmHg 74%
    22:00 +14°C° 0 mm 1 m/S 638 mmHg 75%
    23:00 +13°C° 0 mm 1 m/S 638 mmHg 76%

    20 Oktober, Sonntag

    Zeit Temperatur Niederschläge Wind Luftdruck Luftfeuchtigkeit
    00:00 +13°C° 0 mm 1 m/S 638 mmHg 77%
    01:00 +12°C° 0 mm 1 m/S 638 mmHg 78%
    02:00 +12°C° 0 mm 1 m/S 638 mmHg 79%
    03:00 +12°C° 0 mm 1 m/S 637 mmHg 80%
    04:00 +11°C° 0 mm 1 m/S 637 mmHg 82%
    05:00 +11°C° 0 mm 1 m/S 638 mmHg 83%
    06:00 +11°C° 0 mm 1 m/S 638 mmHg 84%
    07:00 +12°C° 0 mm 1 m/S 638 mmHg 79%
    08:00 +14°C° 0 mm 1 m/S 638 mmHg 74%
    09:00 +15°C° 0 mm 1 m/S 639 mmHg 69%
    10:00 +16°C° 0.3 mm 2 m/S 639 mmHg 66%
    11:00 +17°C° 0.3 mm 2 m/S 639 mmHg 63%
    12:00 +18°C° 0.3 mm 2 m/S 639 mmHg 60%
    13:00 +17°C° 0.8 mm 2 m/S 639 mmHg 63%
    14:00 +17°C° 0.8 mm 2 m/S 638 mmHg 67%
    15:00 +16°C° 0.8 mm 2 m/S 638 mmHg 70%
    16:00 +15°C° 0.6 mm 2 m/S 638 mmHg 76%
    17:00 +14°C° 0.6 mm 2 m/S 638 mmHg 81%
    18:00 +13°C° 0.6 mm 1 m/S 638 mmHg 86%
    19:00 +13°C° 0.1 mm 1 m/S 638 mmHg 87%
    20:00 +12°C° 0.1 mm 1 m/S 638 mmHg 88%
    21:00 +12°C° 0.1 mm 1 m/S 638 mmHg 90%
    22:00 +12°C° 0 mm 1 m/S 638 mmHg 90%
    23:00 +11°C° 0 mm 1 m/S 638 mmHg 90%

    21 Oktober, Montag

    Zeit Temperatur Niederschläge Wind Luftdruck Luftfeuchtigkeit
    00:00 +11°C° 0 mm 1 m/S 638 mmHg 90%
    01:00 +11°C° 0 mm 1 m/S 638 mmHg 91%
    02:00 +11°C° 0 mm 1 m/S 638 mmHg 92%
    03:00 +10°C° 0 mm 1 m/S 638 mmHg 94%
    04:00 +10°C° 0 mm 1 m/S 638 mmHg 94%
    05:00 +10°C° 0 mm 1 m/S 638 mmHg 94%
    06:00 +10°C° 0 mm 1 m/S 638 mmHg 94%
    07:00 +10°C° 0 mm 1 m/S 638 mmHg 89%
    08:00 +11°C° 0 mm 1 m/S 639 mmHg 85%
    09:00 +12°C° 0 mm 1 m/S 639 mmHg 80%
    10:00 +13°C° 0.1 mm 1 m/S 639 mmHg 77%
    11:00 +14°C° 0.1 mm 2 m/S 639 mmHg 73%
    12:00 +15°C° 0.1 mm 2 m/S 639 mmHg 70%
    13:00 +14°C° 0.2 mm 2 m/S 638 mmHg 72%
    14:00 +14°C° 0.2 mm 2 m/S 638 mmHg 74%
    15:00 +14°C° 0.2 mm 2 m/S 638 mmHg 75%
    16:00 +13°C° 0.1 mm 2 m/S 638 mmHg 79%
    17:00 +12°C° 0.1 mm 2 m/S 638 mmHg 82%
    18:00 +12°C° 0.1 mm 1 m/S 638 mmHg 85%
    19:00 +11°C° 0 mm 1 m/S 638 mmHg 87%
    20:00 +11°C° 0 mm 1 m/S 638 mmHg 89%
    21:00 +10°C° 0 mm 1 m/S 638 mmHg 91%
    22:00 +10°C° 0 mm 1 m/S 638 mmHg 91%
    23:00 +10°C° 0 mm 1 m/S 638 mmHg 91%
    Mehr zeigen